| time (UTC) | temp F | wind direction | speed MPH | gust MPH | rain 1hr in | rain 24hr in | rain mn in | humidity % | barometer mb |
| 20260509123353 | 51 | 180 | 1.0 | 6.0 | 0.00 | 0.00 | 0.00 | 82 | 1008.6 |
| 20260509122853 | 51 | 199 | 2.0 | 4.0 | 0.00 | 0.01 | 0.00 | 82 | 1008.7 |
| 20260509122353 | 50 | 84 | 2.0 | 3.0 | 0.00 | 0.01 | 0.00 | 82 | 1008.5 |
| 20260509121852 | 50 | 164 | 3.0 | 3.0 | 0.00 | 0.02 | 0.00 | 81 | 1008.9 |
| 20260509121352 | 50 | 124 | 0.0 | 2.0 | 0.00 | 0.02 | 0.00 | 82 | 1008.9 |
| 20260509121115 | 49 | 151 | 2.0 | 2.0 | 0.00 | 0.03 | 0.00 | 82 | 1008.7 |
| 20260509120352 | 49 | 113 | 0.0 | 3.0 | 0.00 | 0.04 | 0.00 | 83 | 1008.7 |
| 20260509120122 | 48 | 141 | 2.0 | 3.0 | 0.00 | 0.05 | 0.00 | 84 | 1009.0 |
| 20260509115352 | 48 | 154 | 3.0 | 3.0 | 0.00 | 0.06 | 0.00 | 85 | 1008.9 |
| 20260509114852 | 47 | 161 | 2.0 | 3.0 | 0.00 | 0.06 | 0.00 | 85 | 1008.7 |
| 20260509114351 | 47 | 151 | 1.0 | 3.0 | 0.00 | 0.06 | 0.00 | 86 | 1008.6 |
| 20260509113851 | 46 | 133 | 2.0 | 3.0 | 0.00 | 0.07 | 0.00 | 86 | 1008.7 |
| 20260509113614 | 46 | 322 | 0.0 | 1.0 | 0.00 | 0.07 | 0.00 | 86 | 1008.9 |
| 20260509112850 | 45 | 37 | 0.0 | 2.0 | 0.00 | 0.07 | 0.00 | 86 | 1008.9 |
| 20260509112351 | 45 | 4 | 0.0 | 2.0 | 0.00 | 0.07 | 0.00 | 88 | 1009.0 |
| 20260509111850 | 44 | 4 | 1.0 | 2.0 | 0.00 | 0.07 | 0.00 | 89 | 1008.7 |
| 20260509111350 | 44 | 359 | 1.0 | 1.0 | 0.00 | 0.07 | 0.00 | 89 | 1009.0 |
| 20260509110850 | 44 | 235 | 0.0 | 2.0 | 0.00 | 0.07 | 0.00 | 88 | 1008.6 |
| 20260509110350 | 44 | 224 | 0.0 | 3.0 | 0.00 | 0.07 | 0.00 | 88 | 1008.7 |
| 20260509105850 | 44 | 205 | 0.0 | 4.0 | 0.00 | 0.07 | 0.00 | 88 | 1008.6 |
| 20260509105349 | 43 | 180 | 2.0 | 4.0 | 0.00 | 0.07 | 0.00 | 89 | 1008.5 |
| 20260509105158 | 43 | 181 | 3.0 | 3.0 | 0.00 | 0.07 | 0.00 | 89 | 1008.6 |
| 20260509105049 | 43 | 194 | 2.0 | 3.0 | 0.00 | 0.07 | 0.00 | 88 | 1008.7 |
| 20260509103849 | 43 | 191 | 2.0 | 2.0 | 0.00 | 0.08 | 0.00 | 88 | 1008.6 |
| 20260509103608 | 43 | 187 | 2.0 | 2.0 | 0.00 | 0.08 | 0.00 | 88 | 1008.7 |
| 20260509102848 | 42 | 194 | 2.0 | 0.0 | 0.00 | 0.08 | 0.00 | 87 | 1008.5 |
| 20260509101859 | 42 | 195 | 2.0 | 3.0 | 0.00 | 0.08 | 0.00 | 86 | 1008.5 |
| 20260509100917 | 42 | 188 | 1.0 | 3.0 | 0.00 | 0.08 | 0.00 | 85 | 1008.6 |
| 20260509100417 | 42 | 180 | 0.0 | 3.0 | 0.00 | 0.08 | 0.00 | 85 | 1008.5 |
| 20260509095918 | 42 | 195 | 2.0 | 4.0 | 0.00 | 0.08 | 0.00 | 85 | 1008.6 |
| 20260509095416 | 43 | 192 | 2.0 | 4.0 | 0.00 | 0.08 | 0.00 | 83 | 1008.7 |
| 20260509094916 | 43 | 192 | 2.0 | 4.0 | 0.00 | 0.08 | 0.00 | 83 | 1008.6 |
| 20260509094855 | 43 | 195 | 1.0 | 3.0 | 0.00 | 0.08 | 0.00 | 83 | 1008.6 |
| 20260509093916 | 43 | 183 | 2.0 | 3.0 | 0.00 | 0.08 | 0.00 | 83 | 1008.6 |
| 20260509093641 | 43 | 180 | 0.0 | 3.0 | 0.00 | 0.08 | 0.00 | 84 | 1008.5 |
| 20260509092916 | 43 | 202 | 0.0 | 3.0 | 0.00 | 0.08 | 0.00 | 83 | 1008.6 |
| 20260509092416 | 43 | 211 | 2.0 | 2.0 | 0.00 | 0.08 | 0.00 | 82 | 1008.5 |
| 20260509092142 | 43 | 193 | 2.0 | 3.0 | 0.00 | 0.08 | 0.00 | 81 | 1008.9 |
| 20260509091415 | 43 | 193 | 2.0 | 3.0 | 0.00 | 0.08 | 0.00 | 80 | 1008.5 |
| 20260509090915 | 43 | 181 | 2.0 | 3.0 | 0.00 | 0.08 | 0.00 | 79 | 1008.5 |
| 20260509090415 | 43 | 186 | 2.0 | 3.0 | 0.00 | 0.08 | 0.00 | 78 | 1008.6 |
| 20260509085914 | 43 | 186 | 2.0 | 3.0 | 0.00 | 0.08 | 0.00 | 76 | 1008.6 |
| 20260509085414 | 43 | 191 | 2.0 | 2.0 | 0.00 | 0.08 | 0.00 | 75 | 1008.7 |
| 20260509084914 | 44 | 187 | 0.0 | 2.0 | 0.00 | 0.08 | 0.00 | 73 | 1008.7 |
| 20260509084414 | 44 | 193 | 0.0 | 3.0 | 0.00 | 0.08 | 0.00 | 71 | 1008.9 |
| 20260509083913 | 44 | 202 | 0.0 | 4.0 | 0.00 | 0.08 | 0.00 | 70 | 1008.7 |
| 20260509083413 | 44 | 171 | 2.0 | 5.0 | 0.00 | 0.08 | 0.00 | 69 | 1009.0 |
| 20260509082913 | 45 | 178 | 3.0 | 6.0 | 0.00 | 0.08 | 0.00 | 67 | 1009.0 |
| 20260509082414 | 45 | 171 | 3.0 | 6.0 | 0.00 | 0.08 | 0.00 | 66 | 1009.0 |
| 20260509081914 | 45 | 182 | 4.0 | 6.0 | 0.00 | 0.08 | 0.00 | 66 | 1009.1 |
| 20260509081413 | 44 | 179 | 3.0 | 5.0 | 0.00 | 0.08 | 0.00 | 67 | 1009.0 |
| 20260509081130 | 44 | 181 | 3.0 | 4.0 | 0.00 | 0.08 | 0.00 | 67 | 1009.1 |
| 20260509080412 | 43 | 160 | 4.0 | 4.0 | 0.00 | 0.08 | 0.00 | 68 | 1009.0 |
| 20260509075913 | 43 | 164 | 2.0 | 3.0 | 0.00 | 0.08 | 0.00 | 70 | 1009.1 |
| 20260509075412 | 42 | 174 | 2.0 | 4.0 | 0.00 | 0.08 | 0.00 | 73 | 1009.4 |
| 20260509074912 | 42 | 190 | 2.0 | 4.0 | 0.00 | 0.08 | 0.00 | 75 | 1009.2 |
| 20260509074411 | 42 | 190 | 1.0 | 4.0 | 0.00 | 0.08 | 0.00 | 74 | 1009.4 |
| 20260509073911 | 43 | 200 | 2.0 | 4.0 | 0.00 | 0.08 | 0.00 | 69 | 1009.4 |
| 20260509073412 | 43 | 173 | 4.0 | 4.0 | 0.00 | 0.08 | 0.00 | 66 | 1009.4 |
| 20260509072911 | 43 | 178 | 3.0 | 4.0 | 0.00 | 0.08 | 0.00 | 66 | 1009.3 |
| 20260509072411 | 42 | 175 | 2.0 | 4.0 | 0.00 | 0.08 | 0.00 | 67 | 1009.3 |
| 20260509071911 | 42 | 167 | 3.0 | 4.0 | 0.00 | 0.08 | 0.00 | 69 | 1009.3 |
| 20260509071411 | 42 | 180 | 2.0 | 4.0 | 0.00 | 0.08 | 0.00 | 69 | 1009.5 |
| 20260509070910 | 41 | 174 | 3.0 | 4.0 | 0.00 | 0.08 | 0.00 | 70 | 1009.6 |
| 20260509070410 | 41 | 176 | 2.0 | 4.0 | 0.00 | 0.08 | 0.00 | 71 | 1009.6 |
| 20260509065910 | 40 | 179 | 2.0 | 3.0 | 0.00 | 0.08 | 0.00 | 72 | 1009.8 |
| 20260509065409 | 40 | 199 | 1.0 | 4.0 | 0.00 | 0.08 | 0.00 | 73 | 1009.8 |
| 20260509064909 | 41 | 174 | 2.0 | 4.0 | 0.00 | 0.08 | 0.00 | 72 | 1009.8 |
| 20260509064409 | 40 | 192 | 2.0 | 2.0 | 0.00 | 0.08 | 0.00 | 75 | 1009.8 |
| 20260509063909 | 40 | 197 | 0.0 | 4.0 | 0.00 | 0.08 | 0.00 | 73 | 1009.9 |
| 20260509063409 | 41 | 273 | 0.0 | 5.0 | 0.00 | 0.08 | 0.00 | 72 | 1009.9 |
| 20260509063350 | 41 | 185 | 3.0 | 5.0 | 0.00 | 0.08 | 0.00 | 70 | 1010.2 |
| 20260509062633 | 41 | 186 | 2.0 | 5.0 | 0.00 | 0.08 | 0.00 | 69 | 1010.1 |
| 20260509061908 | 40 | 193 | 1.0 | 4.0 | 0.00 | 0.08 | 0.00 | 73 | 1010.2 |
| 20260509061408 | 39 | 197 | 2.0 | 2.0 | 0.00 | 0.08 | 0.00 | 78 | 1010.3 |
| 20260509061129 | 39 | 176 | 0.0 | 2.0 | 0.00 | 0.08 | 0.00 | 82 | 1010.5 |
| 20260509060408 | 40 | 239 | 1.0 | 3.0 | 0.00 | 0.08 | 0.00 | 77 | 1010.4 |
| 20260509060126 | 40 | 195 | 1.0 | 4.0 | 0.00 | 0.08 | 0.00 | 74 | 1010.6 |
| 20260509055407 | 40 | 180 | 3.0 | 4.0 | 0.00 | 0.08 | 0.00 | 75 | 1010.6 |
| 20260509054906 | 40 | 195 | 2.0 | 3.0 | 0.00 | 0.08 | 0.00 | 75 | 1010.6 |
| 20260509054407 | 40 | 193 | 2.0 | 4.0 | 0.00 | 0.08 | 0.00 | 74 | 1010.7 |
| 20260509053907 | 40 | 195 | 2.0 | 4.0 | 0.00 | 0.08 | 0.00 | 75 | 1010.8 |
| 20260509053406 | 40 | 189 | 2.0 | 3.0 | 0.00 | 0.08 | 0.00 | 74 | 1010.7 |
| 20260509052906 | 40 | 211 | 2.0 | 3.0 | 0.00 | 0.08 | 0.00 | 76 | 1010.6 |
| 20260509052406 | 40 | 211 | 2.0 | 3.0 | 0.00 | 0.08 | 0.00 | 75 | 1010.8 |
| 20260509051905 | 40 | 196 | 0.0 | 3.0 | 0.00 | 0.08 | 0.00 | 73 | 1010.8 |
| 20260509051405 | 40 | 199 | 1.0 | 3.0 | 0.00 | 0.08 | 0.00 | 75 | 1011.0 |
| 20260509050905 | 40 | 196 | 1.0 | 3.0 | 0.00 | 0.08 | 0.00 | 75 | 1010.9 |
| 20260509050623 | 40 | 185 | 2.0 | 3.0 | 0.00 | 0.08 | 0.00 | 77 | 1011.0 |
| 20260509045905 | 40 | 192 | 2.0 | 3.0 | 0.00 | 0.08 | 0.00 | 80 | 1011.1 |
| 20260509045405 | 40 | 188 | 2.0 | 3.0 | 0.00 | 0.08 | 0.00 | 80 | 1011.2 |
| 20260509045136 | 40 | 184 | 2.0 | 3.0 | 0.00 | 0.08 | 0.00 | 80 | 1011.0 |
| 20260509044404 | 40 | 211 | 2.0 | 3.0 | 0.00 | 0.08 | 0.00 | 81 | 1011.2 |
| 20260509043904 | 40 | 157 | 0.0 | 3.0 | 0.00 | 0.08 | 0.00 | 82 | 1011.1 |
| 20260509043404 | 40 | 202 | 1.0 | 3.0 | 0.00 | 0.08 | 0.00 | 82 | 1011.4 |
| 20260509042903 | 40 | 177 | 2.0 | 3.0 | 0.00 | 0.08 | 0.00 | 82 | 1011.3 |
| 20260509042403 | 40 | 156 | 0.0 | 3.0 | 0.00 | 0.08 | 0.00 | 83 | 1011.2 |
| 20260509041903 | 40 | 232 | 0.0 | 3.0 | 0.00 | 0.08 | 0.00 | 84 | 1011.5 |
| 20260509041402 | 40 | 187 | 0.0 | 2.0 | 0.00 | 0.08 | 0.00 | 83 | 1011.4 |
| 20260509040902 | 40 | 203 | 1.0 | 2.0 | 0.00 | 0.08 | 0.00 | 80 | 1011.5 |
| 20260509040403 | 40 | 203 | 1.0 | 3.0 | 0.00 | 0.08 | 0.00 | 79 | 1011.5 |
| 20260509035902 | 40 | 194 | 1.0 | 3.0 | 0.00 | 0.08 | 0.08 | 77 | 1011.6 |
| 20260509035624 | 40 | 197 | 1.0 | 3.0 | 0.00 | 0.08 | 0.08 | 76 | 1011.6 |
| 20260509034901 | 41 | 183 | 0.0 | 2.0 | 0.00 | 0.08 | 0.08 | 77 | 1011.6 |
| 20260509034846 | 41 | 166 | 0.0 | 2.0 | 0.00 | 0.08 | 0.08 | 76 | 1011.8 |
| 20260509033901 | 41 | 213 | 2.0 | 2.0 | 0.00 | 0.08 | 0.08 | 77 | 1011.7 |
| 20260509033624 | 40 | 169 | 1.0 | 2.0 | 0.00 | 0.08 | 0.08 | 82 | 1011.5 |
| 20260509032901 | 40 | 244 | 1.0 | 2.0 | 0.00 | 0.08 | 0.08 | 82 | 1011.6 |
| 20260509032617 | 40 | 156 | 2.0 | 2.0 | 0.00 | 0.08 | 0.08 | 82 | 1011.7 |
| 20260509031901 | 40 | 187 | 0.0 | 2.0 | 0.00 | 0.08 | 0.08 | 81 | 1011.7 |
| 20260509031401 | 41 | 186 | 1.0 | 2.0 | 0.00 | 0.08 | 0.08 | 79 | 1011.6 |
| 20260509030900 | 41 | 183 | 2.0 | 2.0 | 0.00 | 0.08 | 0.08 | 78 | 1011.6 |
| 20260509030400 | 42 | 180 | 0.0 | 1.0 | 0.00 | 0.08 | 0.08 | 76 | 1011.6 |
| 20260509025900 | 42 | 130 | 0.0 | 2.0 | 0.00 | 0.08 | 0.08 | 76 | 1011.8 |
| 20260509025400 | 42 | 180 | 0.0 | 2.0 | 0.00 | 0.08 | 0.08 | 74 | 1011.7 |
| 20260509024859 | 42 | 148 | 0.0 | 2.0 | 0.00 | 0.09 | 0.08 | 73 | 1011.5 |
| 20260509024618 | 42 | 192 | 1.0 | 2.0 | 0.00 | 0.10 | 0.08 | 72 | 1011.8 |
| 20260509023859 | 43 | 214 | 0.0 | 2.0 | 0.00 | 0.11 | 0.08 | 70 | 1011.6 |
| 20260509023359 | 43 | 184 | 1.0 | 2.0 | 0.00 | 0.11 | 0.08 | 70 | 1011.6 |
| 20260509022858 | 43 | 213 | 2.0 | 2.0 | 0.00 | 0.11 | 0.08 | 71 | 1011.9 |
| 20260509022358 | 43 | 193 | 2.0 | 2.0 | 0.00 | 0.11 | 0.08 | 70 | 1011.5 |
| 20260509022106 | 44 | 185 | 1.0 | 2.0 | 0.00 | 0.11 | 0.08 | 68 | 1011.6 |
| 20260509021951 | 43 | 203 | 1.0 | 2.0 | 0.00 | 0.11 | 0.08 | 69 | 1011.5 |
| 20260509020857 | 44 | 197 | 1.0 | 2.0 | 0.00 | 0.11 | 0.08 | 66 | 1011.7 |
| 20260509020358 | 44 | 191 | 1.0 | 2.0 | 0.00 | 0.11 | 0.08 | 63 | 1011.5 |
| 20260509015857 | 44 | 202 | 0.0 | 1.0 | 0.00 | 0.11 | 0.08 | 61 | 1011.7 |
| 20260509015357 | 45 | 186 | 0.0 | 1.0 | 0.00 | 0.11 | 0.08 | 62 | 1011.6 |
| 20260509014857 | 45 | 179 | 0.0 | 2.0 | 0.00 | 0.11 | 0.08 | 63 | 1011.4 |
| 20260509014356 | 45 | 181 | 0.0 | 2.0 | 0.00 | 0.11 | 0.08 | 65 | 1011.6 |
| 20260509013857 | 46 | 165 | 1.0 | 2.0 | 0.00 | 0.11 | 0.08 | 65 | 1011.5 |
| 20260509013357 | 46 | 169 | 0.0 | 2.0 | 0.00 | 0.11 | 0.08 | 65 | 1011.7 |
| 20260509012856 | 46 | 135 | 0.0 | 2.0 | 0.00 | 0.11 | 0.08 | 66 | 1011.5 |
| 20260509012356 | 46 | 160 | 0.0 | 2.0 | 0.00 | 0.11 | 0.08 | 64 | 1011.6 |
| 20260509011855 | 47 | 166 | 2.0 | 2.0 | 0.00 | 0.11 | 0.08 | 63 | 1011.6 |
| 20260509011355 | 47 | 169 | 1.0 | 1.0 | 0.00 | 0.11 | 0.08 | 51 | 1011.4 |
| 20260509010855 | 48 | 322 | 0.0 | 0.0 | 0.00 | 0.11 | 0.08 | 46 | 1011.6 |
| 20260509010355 | 49 | 322 | 0.0 | 1.0 | 0.00 | 0.11 | 0.08 | 45 | 1011.5 |
| 20260509005855 | 49 | 6 | 0.0 | 1.0 | 0.00 | 0.11 | 0.08 | 47 | 1011.3 |
| 20260509005354 | 49 | 309 | 0.0 | 0.0 | 0.00 | 0.11 | 0.08 | 44 | 1011.4 |
| 20260509004854 | 49 | 209 | 0.0 | 0.0 | 0.00 | 0.11 | 0.08 | 44 | 1011.4 |
| 20260509004354 | 50 | 209 | 0.0 | 0.0 | 0.00 | 0.11 | 0.08 | 44 | 1011.3 |
| 20260509004123 | 50 | 209 | 0.0 | 1.0 | 0.00 | 0.11 | 0.08 | 42 | 1011.2 |
| 20260509003353 | 50 | 287 | 0.0 | 2.0 | 0.00 | 0.11 | 0.08 | 41 | 1011.1 |
| 20260509002854 | 51 | 37 | 0.0 | 2.0 | 0.00 | 0.11 | 0.08 | 43 | 1010.8 |
| 20260509002354 | 51 | 8 | 2.0 | 2.0 | 0.00 | 0.11 | 0.08 | 42 | 1011.1 |
| 20260509002119 | 51 | 347 | 0.0 | 2.0 | 0.00 | 0.11 | 0.08 | 42 | 1010.7 |
| 20260509001352 | 52 | 37 | 0.0 | 4.0 | 0.00 | 0.11 | 0.08 | 43 | 1010.8 |
| 20260509000853 | 52 | 200 | 0.0 | 4.0 | 0.00 | 0.11 | 0.08 | 42 | 1010.9 |
| 20260509000355 | 53 | 180 | 2.0 | 4.0 | 0.00 | 0.11 | 0.08 | 40 | 1010.9 |
| 20260509000118 | 53 | 269 | 0.0 | 4.0 | 0.00 | 0.11 | 0.08 | 42 | 1011.0 |
| 20260508235614 | 53 | 130 | 0.0 | 4.0 | 0.00 | 0.11 | 0.08 | 39 | 1010.9 |
| 20260508235116 | 54 | 168 | 2.0 | 6.0 | 0.00 | 0.11 | 0.08 | 37 | 1010.7 |
| 20260508234351 | 54 | 232 | 2.0 | 7.0 | 0.00 | 0.11 | 0.08 | 38 | 1010.7 |
| 20260508233851 | 54 | 229 | 2.0 | 7.0 | 0.00 | 0.11 | 0.08 | 37 | 1010.9 |
| 20260508233610 | 55 | 195 | 3.0 | 7.0 | 0.00 | 0.11 | 0.08 | 36 | 1010.9 |
| 20260508232852 | 55 | 193 | 2.0 | 7.0 | 0.00 | 0.11 | 0.08 | 36 | 1010.8 |
| 20260508232350 | 55 | 202 | 2.0 | 7.0 | 0.00 | 0.11 | 0.08 | 34 | 1010.8 |
| 20260508231850 | 55 | 180 | 2.0 | 4.0 | 0.00 | 0.11 | 0.08 | 38 | 1010.6 |
| 20260508231351 | 55 | 283 | 1.0 | 8.0 | 0.00 | 0.11 | 0.08 | 36 | 1010.8 |
| 20260508230850 | 54 | 208 | 3.0 | 8.0 | 0.00 | 0.11 | 0.08 | 37 | 1010.7 |
| 20260508230350 | 55 | 88 | 3.0 | 6.0 | 0.00 | 0.11 | 0.08 | 38 | 1010.8 |
| 20260508225850 | 55 | 234 | 2.0 | 6.0 | 0.00 | 0.11 | 0.08 | 36 | 1010.7 |
| 20260508225349 | 55 | 170 | 1.0 | 7.0 | 0.00 | 0.11 | 0.08 | 35 | 1010.7 |
| 20260508224849 | 56 | 245 | 2.0 | 7.0 | 0.00 | 0.11 | 0.08 | 33 | 1010.7 |
| 20260508224349 | 56 | 286 | 3.0 | 9.0 | 0.00 | 0.11 | 0.08 | 35 | 1010.8 |
| 20260508223848 | 56 | 337 | 4.0 | 9.0 | 0.00 | 0.11 | 0.08 | 36 | 1010.5 |
| 20260508223349 | 56 | 306 | 0.0 | 9.0 | 0.00 | 0.11 | 0.08 | 35 | 1010.9 |
| 20260508222849 | 56 | 247 | 3.0 | 9.0 | 0.00 | 0.11 | 0.08 | 33 | 1010.8 |
| 20260508222834 | 56 | 188 | 4.0 | 9.0 | 0.00 | 0.11 | 0.08 | 34 | 1010.8 |
| 20260508221848 | 56 | 222 | 2.0 | 6.0 | 0.00 | 0.11 | 0.08 | 35 | 1010.7 |
| 20260508221348 | 56 | 308 | 4.0 | 7.0 | 0.00 | 0.11 | 0.08 | 35 | 1010.7 |
| 20260508220847 | 56 | 132 | 2.0 | 9.0 | 0.00 | 0.11 | 0.08 | 32 | 1010.6 |
| 20260508220347 | 57 | 229 | 4.0 | 11.0 | 0.00 | 0.11 | 0.08 | 33 | 1010.7 |
| 20260508215847 | 56 | 231 | 3.0 | 11.0 | 0.00 | 0.11 | 0.08 | 33 | 1010.7 |
| 20260508215347 | 57 | 248 | 4.0 | 13.0 | 0.00 | 0.11 | 0.08 | 31 | 1010.8 |
| 20260508214847 | 57 | 200 | 6.0 | 13.0 | 0.00 | 0.11 | 0.08 | 32 | 1010.8 |
| 20260508214347 | 57 | 312 | 5.0 | 13.0 | 0.00 | 0.11 | 0.08 | 32 | 1010.8 |
| 20260508213846 | 56 | 210 | 3.0 | 0.0 | 0.00 | 0.11 | 0.08 | 30 | 1010.6 |
| 20260508212146 | 57 | 246 | 6.0 | 12.0 | 0.00 | 0.11 | 0.08 | 32 | 1010.6 |
| 20260508211646 | 57 | 279 | 5.0 | 10.0 | 0.00 | 0.11 | 0.08 | 34 | 1010.7 |
| 20260508211145 | 57 | 233 | 5.0 | 10.0 | 0.00 | 0.11 | 0.08 | 35 | 1010.9 |
| 20260508210645 | 57 | 223 | 4.0 | 8.0 | 0.00 | 0.11 | 0.08 | 33 | 1010.7 |
| 20260508210145 | 57 | 285 | 6.0 | 8.0 | 0.00 | 0.11 | 0.08 | 33 | 1010.7 |
| 20260508205645 | 57 | 284 | 1.0 | 10.0 | 0.00 | 0.11 | 0.08 | 36 | 1010.8 |
| 20260508205144 | 56 | 64 | 2.0 | 12.0 | 0.00 | 0.11 | 0.08 | 38 | 1010.8 |
| 20260508204645 | 56 | 189 | 5.0 | 12.0 | 0.00 | 0.11 | 0.08 | 38 | 1010.9 |
| 20260508204621 | 56 | 176 | 2.0 | 7.0 | 0.00 | 0.11 | 0.08 | 41 | 1011.0 |
| 20260508203644 | 56 | 211 | 4.0 | 13.0 | 0.00 | 0.11 | 0.08 | 36 | 1010.9 |
| 20260508203144 | 56 | 208 | 5.0 | 13.0 | 0.00 | 0.11 | 0.08 | 37 | 1011.0 |
| 20260508203121 | 56 | 230 | 3.0 | 16.0 | 0.00 | 0.11 | 0.08 | 37 | 1011.1 |
| 20260508202143 | 56 | 201 | 5.0 | 16.0 | 0.00 | 0.11 | 0.08 | 38 | 1011.2 |
| 20260508201908 | 56 | 259 | 3.0 | 16.0 | 0.00 | 0.11 | 0.08 | 39 | 1011.3 |
| 20260508201143 | 56 | 215 | 1.0 | 8.0 | 0.00 | 0.11 | 0.08 | 39 | 1011.2 |
| 20260508200642 | 56 | 291 | 4.0 | 10.0 | 0.00 | 0.11 | 0.08 | 41 | 1011.0 |
| 20260508200142 | 55 | 357 | 3.0 | 10.0 | 0.00 | 0.11 | 0.08 | 41 | 1011.0 |
| 20260508195642 | 55 | 272 | 4.0 | 6.0 | 0.00 | 0.11 | 0.08 | 42 | 1011.2 |
| 20260508195142 | 55 | 68 | 4.0 | 6.0 | 0.00 | 0.11 | 0.08 | 42 | 1011.5 |
| 20260508194642 | 53 | 150 | 2.0 | 7.0 | 0.00 | 0.11 | 0.08 | 41 | 1011.5 |
| 20260508194142 | 54 | 301 | 3.0 | 8.0 | 0.00 | 0.11 | 0.08 | 42 | 1011.7 |
| 20260508193847 | 54 | 206 | 4.0 | 9.0 | 0.00 | 0.11 | 0.08 | 44 | 1011.5 |
| 20260508193734 | 54 | 225 | 4.0 | 8.0 | 0.00 | 0.11 | 0.08 | 43 | 1011.6 |
| 20260508192641 | 54 | 218 | 4.0 | 10.0 | 0.00 | 0.11 | 0.08 | 40 | 1011.9 |
| 20260508192403 | 54 | 308 | 5.0 | 10.0 | 0.00 | 0.11 | 0.08 | 40 | 1011.9 |
| 20260508191641 | 54 | 308 | 7.0 | 14.0 | 0.00 | 0.11 | 0.08 | 43 | 1011.9 |
| 20260508191141 | 54 | 221 | 5.0 | 14.0 | 0.00 | 0.11 | 0.08 | 41 | 1011.8 |
| 20260508190640 | 55 | 191 | 9.0 | 12.0 | 0.00 | 0.11 | 0.08 | 41 | 1012.0 |
| 20260508190401 | 54 | 203 | 6.0 | 10.0 | 0.00 | 0.11 | 0.08 | 40 | 1012.0 |
| 20260508185640 | 53 | 297 | 9.0 | 10.0 | 0.00 | 0.11 | 0.08 | 42 | 1012.0 |
| 20260508185140 | 54 | 303 | 3.0 | 10.0 | 0.00 | 0.11 | 0.08 | 43 | 1012.1 |
| 20260508184640 | 54 | 262 | 1.0 | 11.0 | 0.00 | 0.11 | 0.08 | 42 | 1012.0 |
| 20260508184139 | 53 | 32 | 1.0 | 11.0 | 0.00 | 0.11 | 0.08 | 44 | 1011.9 |
| 20260508183639 | 54 | 259 | 9.0 | 11.0 | 0.00 | 0.11 | 0.08 | 44 | 1012.0 |
| 20260508183139 | 53 | 265 | 3.0 | 10.0 | 0.00 | 0.11 | 0.08 | 43 | 1012.0 |
| 20260508182639 | 53 | 305 | 8.0 | 11.0 | 0.00 | 0.11 | 0.08 | 43 | 1011.9 |
| 20260508182139 | 53 | 355 | 5.0 | 11.0 | 0.00 | 0.11 | 0.08 | 44 | 1012.2 |
| 20260508181638 | 54 | 323 | 8.0 | 11.0 | 0.00 | 0.11 | 0.08 | 43 | 1012.1 |
| 20260508181138 | 53 | 331 | 4.0 | 12.0 | 0.00 | 0.11 | 0.08 | 40 | 1012.2 |
| 20260508180638 | 54 | 287 | 6.0 | 12.0 | 0.00 | 0.11 | 0.08 | 42 | 1012.3 |
| 20260508180138 | 53 | 251 | 3.0 | 11.0 | 0.00 | 0.11 | 0.08 | 46 | 1012.3 |
| 20260508175638 | 53 | 213 | 6.0 | 12.0 | 0.00 | 0.11 | 0.08 | 46 | 1012.6 |
| 20260508175137 | 53 | 223 | 5.0 | 12.0 | 0.00 | 0.11 | 0.08 | 45 | 1012.3 |
| 20260508174859 | 52 | 337 | 5.0 | 12.0 | 0.00 | 0.11 | 0.08 | 43 | 1012.4 |
| 20260508174136 | 52 | 207 | 9.0 | 12.0 | 0.00 | 0.11 | 0.08 | 46 | 1012.4 |
| 20260508173636 | 52 | 282 | 6.0 | 17.0 | 0.00 | 0.11 | 0.08 | 45 | 1012.6 |
| 20260508173405 | 53 | 184 | 3.0 | 17.0 | 0.00 | 0.11 | 0.08 | 45 | 1012.5 |
| 20260508172636 | 52 | 221 | 6.0 | 11.0 | 0.00 | 0.11 | 0.08 | 50 | 1012.6 |
| 20260508172136 | 51 | 264 | 2.0 | 11.0 | 0.00 | 0.11 | 0.08 | 46 | 1012.6 |
| 20260508171635 | 51 | 299 | 6.0 | 10.0 | 0.00 | 0.11 | 0.08 | 53 | 1012.8 |
| 20260508171136 | 51 | 349 | 6.0 | 11.0 | 0.00 | 0.11 | 0.08 | 50 | 1012.8 |
| 20260508170636 | 50 | 269 | 2.0 | 14.0 | 0.00 | 0.11 | 0.08 | 49 | 1013.0 |
| 20260508170136 | 51 | 184 | 2.0 | 14.0 | 0.00 | 0.11 | 0.08 | 49 | 1012.8 |
| 20260508165635 | 50 | 321 | 3.0 | 9.0 | 0.00 | 0.11 | 0.08 | 54 | 1012.9 |
| 20260508165135 | 51 | 336 | 7.0 | 12.0 | 0.00 | 0.11 | 0.08 | 57 | 1013.0 |
| 20260508164859 | 50 | 55 | 3.0 | 12.0 | 0.00 | 0.11 | 0.08 | 59 | 1013.1 |
| 20260508164134 | 49 | 161 | 2.0 | 12.0 | 0.00 | 0.11 | 0.08 | 58 | 1013.0 |
| 20260508163634 | 49 | 7 | 7.0 | 13.0 | 0.00 | 0.11 | 0.08 | 60 | 1013.3 |
| 20260508163353 | 50 | 222 | 3.0 | 13.0 | 0.00 | 0.11 | 0.08 | 58 | 1013.3 |
| 20260508162852 | 49 | 190 | 7.0 | 9.0 | 0.00 | 0.11 | 0.08 | 63 | 1013.3 |
| 20260508162133 | 50 | 333 | 2.0 | 9.0 | 0.00 | 0.11 | 0.08 | 58 | 1013.1 |
| 20260508161634 | 48 | 236 | 6.0 | 9.0 | 0.00 | 0.11 | 0.08 | 62 | 1013.3 |
| 20260508161402 | 49 | 330 | 4.0 | 11.0 | 0.00 | 0.11 | 0.08 | 67 | 1013.2 |
| 20260508160851 | 48 | 215 | 3.0 | 11.0 | 0.00 | 0.11 | 0.08 | 66 | 1013.1 |
| 20260508160133 | 49 | 196 | 11.0 | 11.0 | 0.00 | 0.11 | 0.08 | 64 | 1013.3 |
| 20260508155632 | 48 | 269 | 2.0 | 11.0 | 0.00 | 0.11 | 0.08 | 66 | 1013.5 |
| 20260508155132 | 48 | 219 | 3.0 | 11.0 | 0.00 | 0.11 | 0.08 | 68 | 1013.7 |
| 20260508154632 | 48 | 300 | 2.0 | 11.0 | 0.00 | 0.11 | 0.08 | 67 | 1013.5 |
| 20260508154132 | 47 | 191 | 2.0 | 12.0 | 0.00 | 0.11 | 0.08 | 68 | 1013.6 |
| 20260508153632 | 47 | 221 | 6.0 | 12.0 | 0.00 | 0.11 | 0.08 | 69 | 1013.6 |
| 20260508153132 | 47 | 203 | 6.0 | 11.0 | 0.00 | 0.11 | 0.08 | 70 | 1013.7 |
| 20260508152632 | 47 | 263 | 4.0 | 11.0 | 0.00 | 0.11 | 0.08 | 73 | 1013.6 |
| 20260508152131 | 47 | 277 | 4.0 | 12.0 | 0.00 | 0.11 | 0.08 | 74 | 1013.6 |
| 20260508151631 | 46 | 200 | 7.0 | 12.0 | 0.00 | 0.11 | 0.08 | 74 | 1013.5 |
| 20260508151131 | 46 | 209 | 7.0 | 12.0 | 0.00 | 0.11 | 0.08 | 77 | 1013.5 |
| 20260508150630 | 46 | 245 | 2.0 | 11.0 | 0.00 | 0.11 | 0.08 | 76 | 1013.5 |
| 20260508150131 | 45 | 182 | 8.0 | 11.0 | 0.00 | 0.11 | 0.08 | 79 | 1013.5 |
| 20260508145631 | 45 | 201 | 4.0 | 11.0 | 0.00 | 0.11 | 0.08 | 78 | 1013.4 |
| 20260508145130 | 46 | 181 | 5.0 | 9.0 | 0.00 | 0.11 | 0.08 | 79 | 1013.5 |
| 20260508144850 | 44 | 206 | 4.0 | 9.0 | 0.00 | 0.11 | 0.08 | 79 | 1013.4 |
| 20260508144129 | 44 | 241 | 5.0 | 9.0 | 0.00 | 0.11 | 0.08 | 83 | 1013.5 |
| 20260508143629 | 44 | 212 | 6.0 | 9.0 | 0.00 | 0.11 | 0.08 | 85 | 1013.5 |
| 20260508143129 | 44 | 214 | 4.0 | 6.0 | 0.00 | 0.11 | 0.08 | 84 | 1013.5 |
| 20260508142854 | 42 | 317 | 3.0 | 5.0 | 0.00 | 0.11 | 0.08 | 84 | 1013.5 |
| 20260508142129 | 43 | 191 | 2.0 | 3.0 | 0.00 | 0.11 | 0.08 | 84 | 1013.4 |
| 20260508141628 | 42 | 331 | 1.0 | 4.0 | 0.00 | 0.11 | 0.08 | 87 | 1013.3 |
| 20260508141129 | 42 | 225 | 0.0 | 4.0 | 0.00 | 0.11 | 0.08 | 84 | 1013.5 |
| 20260508140628 | 42 | 268 | 3.0 | 4.0 | 0.00 | 0.11 | 0.08 | 87 | 1013.7 |
| 20260508140128 | 42 | 180 | 2.0 | 4.0 | 0.00 | 0.11 | 0.08 | 87 | 1013.4 |
| 20260508135848 | 42 | 241 | 0.0 | 4.0 | 0.00 | 0.11 | 0.08 | 88 | 1013.5 |
| 20260508135128 | 42 | 236 | 0.0 | 4.0 | 0.00 | 0.11 | 0.08 | 90 | 1013.5 |
| 20260508134628 | 41 | 221 | 1.0 | 4.0 | 0.00 | 0.11 | 0.08 | 89 | 1013.5 |
| 20260508134346 | 41 | 350 | 3.0 | 4.0 | 0.00 | 0.11 | 0.08 | 89 | 1013.5 |
| 20260508133626 | 41 | 212 | 2.0 | 4.0 | 0.00 | 0.11 | 0.08 | 88 | 1013.7 |
| 20260508133126 | 41 | 127 | 0.0 | 4.0 | 0.00 | 0.11 | 0.08 | 88 | 1013.5 |
| 20260508132626 | 41 | 193 | 2.0 | 4.0 | 0.01 | 0.11 | 0.08 | 89 | 1013.2 |
| 20260508132126 | 40 | 209 | 3.0 | 5.0 | 0.02 | 0.11 | 0.08 | 90 | 1013.4 |
| 20260508131847 | 40 | 243 | 2.0 | 5.0 | 0.02 | 0.11 | 0.08 | 91 | 1013.2 |
| 20260508131125 | 40 | 203 | 2.0 | 5.0 | 0.03 | 0.11 | 0.08 | 91 | 1013.2 |
| 20260508130832 | 40 | 278 | 2.0 | 4.0 | 0.04 | 0.11 | 0.08 | 91 | 1013.5 |
| 20260508130714 | 40 | 161 | 2.0 | 4.0 | 0.04 | 0.11 | 0.08 | 91 | 1013.4 |
| 20260508125625 | 40 | 37 | 0.0 | 3.0 | 0.06 | 0.11 | 0.08 | 90 | 1013.4 |
| 20260508125125 | 40 | 43 | 2.0 | 3.0 | 0.06 | 0.11 | 0.08 | 92 | 1013.3 |
| 20260508124624 | 40 | 13 | 0.0 | 3.0 | 0.06 | 0.11 | 0.08 | 92 | 1013.0 |
| 20260508124124 | 40 | 356 | 2.0 | 8.0 | 0.06 | 0.10 | 0.08 | 93 | 1013.6 |